This is the latest recevied weather packets stored in our database for station/object K1JO. If no packets are shown the sender has not sent any weather packets the latest 10 day(s).
| Time | Temp. | Humidity | Pressure | Rain* | Wind** | Luminosity | Snow |
|---|---|---|---|---|---|---|---|
| 1777755211 | 7.78° C | 65% | 1008.5 hPa | 0 mm | - | 73 W/m² | - |
| 1777754909 | 7.78° C | 67% | 1008.7 hPa | 0 mm | - | 79 W/m² | - |
| 1777754605 | 7.78° C | 67% | 1008.6 hPa | 0 mm | - | 80 W/m² | - |
| 1777754302 | 7.78° C | 68% | 1008.5 hPa | 0 mm | - | 84 W/m² | - |
| 1777754001 | 7.78° C | 66% | 1008.6 hPa | 0 mm | - | 95 W/m² | - |
| 1777753701 | 7.78° C | 65% | 1008.9 hPa | 0 mm | - | 91 W/m² | - |
| 1777753399 | 7.78° C | 66% | 1008.6 hPa | 0 mm | - | 65 W/m² | - |
| 1777753097 | 7.78° C | 66% | 1008.8 hPa | 0 mm | - | 79 W/m² | - |
| 1777752792 | 8.33° C | 65% | 1008.8 hPa | 0 mm | - | 76 W/m² | - |
| 1777752489 | 8.33° C | 65% | 1008.8 hPa | 0 mm | - | 89 W/m² | - |
| 1777752185 | 8.33° C | 70% | 1008.9 hPa | 0 mm | - | 112 W/m² | - |
| 1777751883 | 8.33° C | 75% | 1009 hPa | 0 mm | - | 87 W/m² | - |
| 1777751579 | 8.33° C | 75% | 1009.1 hPa | 0 mm | - | 87 W/m² | - |
| 1777751275 | 8.33° C | 73% | 1009 hPa | 0 mm | - | 105 W/m² | - |
| 1777750973 | 7.22° C | 86% | 1008.9 hPa | 0 mm | - | 112 W/m² | - |
| 1777750668 | 7.22° C | 86% | 1009 hPa | 0 mm | - | 112 W/m² | - |
| 1777750361 | 7.22° C | 86% | 1009 hPa | 0 mm | - | 112 W/m² | - |
| 1777750060 | 7.22° C | 86% | 1009.1 hPa | 0 mm | - | 112 W/m² | - |
| 1777749758 | 7.22° C | 86% | 1009.2 hPa | 0 mm | - | 112 W/m² | - |
| 1777749454 | 7.22° C | 86% | 1009.3 hPa | 0 mm | - | 112 W/m² | - |
| 1777749152 | 7.22° C | 86% | 1009.2 hPa | 0 mm | - | 112 W/m² | - |
| 1777748849 | 7.22° C | 86% | 1009.2 hPa | 0 mm | - | 112 W/m² | - |
| 1777748547 | 7.22° C | 87% | 1009.2 hPa | 0 mm | - | 118 W/m² | - |
| 1777748247 | 7.22° C | 85% | 1009.3 hPa | 0 mm | - | 85 W/m² | - |
| 1777747944 | 6.11° C | 91% | 1009.4 hPa | 0 mm | - | 128 W/m² | - |
* Rain latest hour (hover to see other rain measurements)
** Current wind speed in m/s (hover to see current wind gust speed)